Date String (YYYY-MM-DD hh:mm:ss) UTC,Instrument flags,absolute air pressure of the measurement (hPa),sample flow rate (lpm),inlet stack bypass flow (lpm),air temperature of the measurement (°C),ambient temperature measured by the external sensor (°C),aerosol sample conditioner tube jacket temperature (°C),OPC LED temperature (°C),internal box temperature (°C),relative humidity of the measurement (%),span deviation,mass concentration of particles derived from Lorenz-Mie calculation of OPC scattering (μg/m³),mass concentration of particles derived from Lorenz-Mie calculation of OPC scattering (μg/m³),mass concentration of particles derived from Lorenz-Mie calculation of OPC scattering (μg/m³)
DateTimeUTC,F1_M11,P_M11,Q1_M11,Q2_M11,T1_M11,T2_M11,T3_M11,T4_M11,T5_M11,U1_M11,ZSPAN_M11,X0_M11,X2_M11,X1_M11
2024-01-11 01:00:00,SystemResetWarning,0813.4,5.00,000.00,018.8,017.1,000.0,027.3,020.0,10.3,0000.0,0001.86,0001.28,0001.05
2024-01-11 01:01:00,SystemResetWarning,0813.4,5.02,000.00,018.8,017.3,000.0,027.3,020.2,10.3,0000.0,0001.88,0001.28,0001.04
2024-01-11 01:02:00,SystemResetWarning,0813.5,5.00,000.00,018.9,018.1,000.0,027.2,020.6,10.3,0000.0,0002.02,0001.32,0001.05
2024-01-11 01:03:00,SystemResetWarning,0813.4,5.00,000.00,019.0,018.8,000.0,027.2,020.8,10.2,0000.0,0001.98,0001.32,0001.04
2024-01-11 01:04:00,SystemResetWarning,0813.4,5.00,000.00,019.0,018.8,000.0,027.2,020.4,10.2,0000.0,0001.93,0001.30,0001.04
2024-01-11 01:05:00,SystemResetWarning,0813.4,4.99,000.00,019.0,018.6,000.0,027.2,020.1,10.3,0000.0,0001.97,0001.32,0001.05
2024-01-11 01:06:00,SystemResetWarning,0813.4,4.99,000.00,018.9,018.3,000.0,027.2,020.0,10.3,0000.0,0001.94,0001.32,0001.06
2024-01-11 01:07:00,SystemResetWarning,0813.4,5.01,000.00,018.8,018.1,000.0,027.3,020.0,10.4,0000.0,0001.93,0001.32,0001.07
2024-01-11 01:08:00,SystemResetWarning,0813.5,5.00,000.00,018.8,017.9,000.0,027.3,020.0,10.5,0000.0,0001.86,0001.30,0001.08
2024-01-11 01:09:00,SystemResetWarning,0813.4,5.00,000.00,018.8,017.6,000.0,027.3,020.0,10.6,0000.0,0001.93,0001.33,0001.09
2024-01-11 01:10:00,SystemResetWarning,0813.4,5.00,000.00,018.8,017.5,000.0,027.3,020.0,10.6,0000.0,0001.93,0001.34,0001.10
2024-01-11 01:11:00,SystemResetWarning,0813.5,5.02,000.00,018.8,017.3,000.0,027.3,020.0,10.7,0000.0,0001.90,0001.32,0001.11
2024-01-11 01:12:00,SystemResetWarning,0813.5,5.01,000.00,018.8,017.2,000.0,027.3,020.0,10.8,0000.0,0001.90,0001.34,0001.14
2024-01-11 01:13:00,SystemResetWarning,0813.5,5.00,000.00,018.8,017.1,000.0,027.3,020.0,10.8,0000.0,0001.82,0001.35,0001.17
2024-01-11 01:14:00,SystemResetWarning,0813.4,4.99,000.00,018.8,017.1,000.0,027.3,020.1,10.8,0000.0,0001.80,0001.36,0001.21
2024-01-11 01:15:00,SystemResetWarning,0813.4,5.00,000.00,018.8,017.8,000.0,027.3,020.5,10.8,0000.0,0001.87,0001.41,0001.26
2024-01-11 01:16:00,SystemResetWarning,0813.3,5.02,000.00,019.0,018.6,000.0,027.3,020.8,10.8,0000.0,0001.88,0001.45,0001.30
2024-01-11 01:17:00,SystemResetWarning,0813.3,4.99,000.00,019.0,018.8,000.0,027.3,020.5,10.8,0000.0,0001.92,0001.49,0001.35
2024-01-11 01:18:00,SystemResetWarning,0813.3,4.99,000.00,019.0,018.6,000.0,027.2,020.1,10.8,0000.0,0002.01,0001.55,0001.39
2024-01-11 01:19:00,SystemResetWarning,0813.3,5.00,000.00,018.9,018.4,000.0,027.2,020.0,10.9,0000.0,0002.13,0001.62,0001.44
2024-01-11 01:20:00,SystemResetWarning,0813.3,5.01,000.00,018.9,018.1,000.0,027.3,020.0,11.0,0000.0,0002.11,0001.65,0001.48
2024-01-11 01:21:00,SystemResetWarning,0813.3,5.01,000.00,018.8,017.8,000.0,027.3,020.0,11.0,0000.0,0002.20,0001.72,0001.54
2024-01-11 01:22:00,SystemResetWarning,0813.4,5.00,000.00,018.8,017.6,000.0,027.3,020.0,11.0,0000.0,0002.37,0001.81,0001.61
2024-01-11 01:23:00,SystemResetWarning,0813.3,4.99,000.00,018.8,017.4,000.0,027.3,020.0,11.1,0000.0,0002.67,0001.93,0001.69
2024-01-11 01:24:00,SystemResetWarning,0813.3,4.99,000.00,018.8,017.3,000.0,027.3,020.0,11.1,0000.0,0002.84,0002.05,0001.79
2024-01-11 01:25:00,SystemResetWarning,0813.3,4.99,000.00,018.8,017.2,000.0,027.3,020.0,11.2,0000.0,0003.13,0002.23,0001.92
2024-01-11 01:26:00,SystemResetWarning,0813.3,5.00,000.00,018.7,017.1,000.0,027.3,020.0,11.2,0000.0,0003.34,0002.39,0002.06
2024-01-11 01:27:00,SystemResetWarning,0813.3,5.02,000.00,018.7,017.1,000.0,027.3,020.0,11.2,0000.0,0003.84,0002.55,0002.20
2024-01-11 01:28:00,SystemResetWarning,0813.3,5.00,000.00,018.7,017.2,000.0,027.3,020.1,11.2,0000.0,0004.78,0002.70,0002.34
2024-01-11 01:29:00,SystemResetWarning,0813.3,5.00,000.00,018.8,017.9,000.0,027.2,020.5,11.2,0000.0,0004.98,0002.86,0002.49
2024-01-11 01:30:00,SystemResetWarning,0813.3,5.00,000.00,019.0,018.8,000.0,027.2,020.8,11.1,0000.0,0005.06,0002.97,0002.62
2024-01-11 01:31:00,SystemResetWarning,0813.3,4.98,000.00,019.0,018.8,000.0,027.2,020.4,11.1,0000.0,0005.26,0003.10,0002.75
2024-01-11 01:32:00,SystemResetWarning,0813.3,5.00,000.00,018.9,018.6,000.0,027.2,020.1,11.1,0000.0,0005.57,0003.19,0002.87
2024-01-11 01:33:00,SystemResetWarning,0813.2,5.00,000.00,018.9,018.4,000.0,027.2,020.0,11.1,0000.0,0005.73,0003.26,0002.98
2024-01-11 01:34:00,SystemResetWarning,0813.2,5.00,000.00,018.8,018.1,000.0,027.3,020.0,11.1,0000.0,0005.65,0003.29,0003.07
2024-01-11 01:35:00,SystemResetWarning,0813.2,5.00,000.00,018.8,017.9,000.0,027.3,020.0,11.1,0000.0,0005.73,0003.32,0003.12
2024-01-11 01:36:00,SystemResetWarning,0813.1,5.00,000.00,018.8,017.6,000.0,027.3,020.0,11.1,0000.0,0005.68,0003.33,0003.13
2024-01-11 01:37:00,SystemResetWarning,0813.1,5.00,000.00,018.8,017.5,000.0,027.3,020.0,11.0,0000.0,0005.78,0003.35,0003.15
2024-01-11 01:38:00,SystemResetWarning,0813.0,5.00,000.00,018.8,017.4,000.0,027.3,020.0,11.0,0000.0,0005.77,0003.37,0003.15
2024-01-11 01:39:00,SystemResetWarning,0813.1,5.00,000.00,018.7,017.3,000.0,027.3,020.0,11.0,0000.0,0004.94,0003.39,0003.17
2024-01-11 01:40:00,SystemResetWarning,0813.1,5.00,000.00,018.7,017.2,000.0,027.3,020.0,11.0,0000.0,0004.91,0003.40,0003.17
2024-01-11 01:41:00,SystemResetWarning,0813.0,5.00,000.00,018.7,017.1,000.0,027.3,020.0,11.0,0000.0,0004.98,0003.42,0003.18
2024-01-11 01:42:00,SystemResetWarning,0813.1,5.00,000.00,018.7,017.3,000.0,027.3,020.2,11.0,0000.0,0005.02,0003.43,0003.19
2024-01-11 01:43:00,SystemResetWarning,0813.0,5.01,000.00,018.8,018.1,000.0,027.3,020.6,11.0,0000.0,0004.84,0003.41,0003.19
2024-01-11 01:44:00,SystemResetWarning,0813.1,5.00,000.00,019.0,018.8,000.0,027.3,020.8,10.9,0000.0,0004.67,0003.39,0003.18
2024-01-11 01:45:00,SystemResetWarning,0813.0,4.99,000.00,019.0,018.8,000.0,027.2,020.3,10.9,0000.0,0004.65,0003.38,0003.17
2024-01-11 01:46:00,SystemResetWarning,0813.0,4.99,000.00,018.9,018.6,000.0,027.2,020.1,10.9,0000.0,0004.62,0003.36,0003.14
2024-01-11 01:47:00,SystemResetWarning,0813.0,5.00,000.00,018.9,018.3,000.0,027.2,020.0,11.0,0000.0,0004.62,0003.33,0003.11
2024-01-11 01:48:00,SystemResetWarning,0813.0,5.00,000.00,018.8,018.1,000.0,027.3,020.0,11.0,0000.0,0004.44,0003.27,0003.04
2024-01-11 01:49:00,SystemResetWarning,0813.0,5.00,000.00,018.8,017.8,000.0,027.3,020.0,11.0,0000.0,0004.29,0003.22,0002.97
2024-01-11 01:50:00,SystemResetWarning,0812.9,5.00,000.00,018.8,017.6,000.0,027.3,020.0,11.0,0000.0,0004.11,0003.15,0002.85
2024-01-11 01:51:00,SystemResetWarning,0812.8,5.00,000.00,018.8,017.5,000.0,027.3,020.0,10.9,0000.0,0003.97,0003.05,0002.72
2024-01-11 01:52:00,SystemResetWarning,0812.8,5.00,000.00,018.8,017.3,000.0,027.3,020.0,10.9,0000.0,0003.78,0002.91,0002.59
2024-01-11 01:53:00,SystemResetWarning,0812.8,5.00,000.00,018.8,017.2,000.0,027.3,020.0,11.0,0000.0,0003.66,0002.77,0002.47
2024-01-11 01:54:00,SystemResetWarning,0812.7,5.00,000.00,018.7,017.2,000.0,027.3,020.0,11.0,0000.0,0003.69,0002.68,0002.35
2024-01-11 01:55:00,SystemResetWarning,0812.7,5.01,000.00,018.7,017.1,000.0,027.3,020.0,11.0,0000.0,0003.51,0002.52,0002.21
2024-01-11 01:56:00,SystemResetWarning,0812.7,5.01,000.00,018.7,017.3,000.0,027.3,020.2,10.9,0000.0,0003.37,0002.38,0002.08
2024-01-11 01:57:00,SystemResetWarning,0812.7,4.99,000.00,018.8,018.1,000.0,027.2,020.6,10.9,0000.0,0003.17,0002.25,0001.97
2024-01-11 01:58:00,SystemResetWarning,0812.7,4.99,000.00,019.0,018.8,000.0,027.2,020.7,10.8,0000.0,0003.08,0002.17,0001.89
2024-01-11 01:59:00,SystemResetWarning,0812.7,4.99,000.00,019.0,018.7,000.0,027.2,020.3,10.7,0000.0,0002.94,0002.06,0001.80
